Location: Beadle
(51.4667°N, 109.0000°W)
Time: 17:22:29
(UTC+00:00)

O/OREOS (USA 219) - Pass Details

Date: 28 June 2022
Orbit: 621 x 646 km, 72.0° (Epoch: 22 May)

Event Time Altitude Azimuth Distance (km) Brightness Sun altitude
Rises 06:05:25 0° 337° (NNW) 2,960 ? -13.5°
Reaches altitude 10° 06:08:34 10° 360° (N) 2,051 ? -13.7°
Maximum altitude 06:11:23 16° 38° (NE) 1,696 ? -13.8°
Drops below altitude 10° 06:14:12 10° 75° (ENE) 2,050 ? -13.9°
Sets 06:17:20 0° 98° (E) 2,958 ? -14.0°
